Carlsbad, CA

2:12 PM PDT on May 28, 2017 (GMT -0700)
McClellan-Palomar

Weather History for KCRQ - December, 2013

Change the Weather History Date:

Thursday, December 12, 2013

  Actual Average Record
Temperature  
Mean Temperature 56 °F -  
Max Temperature 66 °F 62 °F 86 °F (2010)
Min Temperature 46 °F 46 °F 43 °F (1999)
Degree Days  
Heating Degree Days 9    
Growing Degree Days 6 (Base 50)    
Moisture  
Dew Point 40 °F    
Average Humidity 62    
Maximum Humidity 83    
Minimum Humidity 15    
Precipitation  
Precipitation 0.00 in - - ()
Sea Level Pressure  
Sea Level Pressure 30.17 in    
Wind  
Wind Speed 3 mph (SSE)    
Max Wind Speed 9 mph    
Max Gust Speed -    
Visibility 10 miles    
Events      
Averages and records for this station are not official NWS values.
T = Trace of Precipitation, MM = Missing Value Source: NWS Daily Summary

Daily Weather History Graph

Daily Weather History Graph

Search for Another Location

Airport or City:

Trip Planner

Search our weather history database for the weather conditions in past years. The results will help you decide how hot, cold, wet, or windy it might be!

Date:

Astronomy

Dec. 12, 2013 Rise Set
Actual Time 6:43 AM PST 4:42 PM PST
Civil Twilight 6:15 AM PST 5:10 PM PST
Nautical Twilight 5:44 AM PST 5:41 PM PST
Astronomical Twilight 5:14 AM PST 6:11 PM PST
Moon 1:43 PM PST (12/12) 2:20 AM PST (12/12)
Length of Visible Light 10h 54m
Length of Day
9h 59m
Waxing Gibbous, 81% of the Moon is Illuminated
Dec 12
Waxing Gibbous
Dec 17
Full
Dec 25
Last Quarter
Jan 1
New
Jan 7
First Quarter

Hourly Weather History & Observations

Time (PST) Temp. Dew Point Humidity Pressure Visibility Wind Dir Wind Speed Gust Speed Precip Events Conditions
12:53 AM 48.0 °F 35.1 °F 61% 30.14 in 10.0 mi Calm Calm - N/A   Clear
1:53 AM 48.9 °F 37.0 °F 64% 30.14 in 10.0 mi East 4.6 mph - N/A   Clear
2:53 AM 46.9 °F 36.0 °F 66% 30.15 in 10.0 mi East 4.6 mph - N/A   Clear
3:53 AM 48.0 °F 35.1 °F 61% 30.14 in 10.0 mi Calm Calm - N/A   Clear
4:53 AM 48.9 °F 33.1 °F 54% 30.15 in 10.0 mi East 4.6 mph - N/A   Clear
5:53 AM 48.9 °F 33.1 °F 54% 30.17 in 10.0 mi East 3.5 mph - N/A   Clear
6:53 AM 48.0 °F 33.1 °F 56% 30.18 in 10.0 mi Calm Calm - N/A   Clear
7:53 AM 53.1 °F 32.0 °F 45% 30.19 in 10.0 mi East 5.8 mph - N/A   Clear
8:53 AM 61.0 °F 28.9 °F 30% 30.19 in 10.0 mi East 3.5 mph - N/A   Clear
9:53 AM 66.0 °F 17.1 °F 15% 30.19 in 10.0 mi Calm Calm - N/A   Clear
10:53 AM 61.0 °F 41.0 °F 48% 30.20 in 10.0 mi WSW 5.8 mph - N/A   Clear
11:53 AM 63.0 °F 37.0 °F 38% 30.17 in 10.0 mi SW 9.2 mph - N/A   Clear
12:53 PM 61.0 °F 48.0 °F 62% 30.15 in 10.0 mi WSW 9.2 mph - N/A   Clear
1:53 PM 60.1 °F 50.0 °F 69% 30.14 in 10.0 mi West 6.9 mph - N/A   Clear
2:53 PM 60.1 °F 48.0 °F 64% 30.14 in 10.0 mi WSW 6.9 mph - N/A   Clear
3:53 PM 59.0 °F 50.0 °F 72% 30.15 in 10.0 mi WSW 4.6 mph - N/A   Clear
4:53 PM 57.0 °F 51.1 °F 81% 30.15 in 10.0 mi Calm Calm - N/A   Clear
5:53 PM 55.9 °F 50.0 °F 80% 30.17 in 8.0 mi Calm Calm - N/A   Clear
6:53 PM 54.0 °F 48.9 °F 83% 30.17 in 6.0 mi Calm Calm - N/A   Haze
7:53 PM 51.1 °F 45.0 °F 80% 30.18 in 9.0 mi Calm Calm - N/A   Clear
8:53 PM 50.0 °F 42.1 °F 74% 30.18 in 10.0 mi Calm Calm - N/A   Clear
9:53 PM 48.9 °F 41.0 °F 74% 30.18 in 10.0 mi Calm Calm - N/A   Clear
10:53 PM 46.9 °F 39.0 °F 74% 30.19 in 10.0 mi Calm Calm - N/A   Clear
11:53 PM 46.9 °F 37.9 °F 71% 30.18 in 10.0 mi Calm Calm - N/A   Clear